This demonstration page uses our WeatherBlox Daily Observations layout. Learn more.

39.29038, -76.61219

Hourly Observations for November 14, 2019

Temp ( °F °C ) Dew Point ( °F °C ) Humidity (%) Winds ( mph kmh ) Pressure ( in mb ) Visibility ( mi km ) Precip ( " mm )
12:54 am 00:54 undefined 31 -0.6 14 -10 49 49 undefined N/A 30.42 1030 N/A 0 0
1:54 am 01:54 undefined 30 -1.1 16 -8.9 56 56 undefined N/A 30.41 1030 N/A 0 0
2:54 am 02:54 undefined 30 -1.1 16 -8.9 56 56 undefined N/A 30.4 1030 N/A 0 0
3:54 am 03:54 undefined 29 -1.7 15 -9.4 56 56 undefined N/A 30.39 1029 N/A 0 0
4:54 am 04:54 undefined 29 -1.7 15 -9.4 56 56 undefined N/A 30.4 1030 N/A 0 0
5:54 am 05:54 undefined 29 -1.7 16 -8.9 58 58 undefined N/A 30.4 1030 N/A 0 0
6:54 am 06:54 undefined 30 -1.1 16 -8.9 56 56 undefined N/A 30.42 1030 N/A 0 0
7:54 am 07:54 undefined 30 -1.1 17 -8.3 58 58 undefined N/A 30.43 1031 N/A 0 0
8:54 am 08:54 undefined 35 1.7 18 -7.8 50 50 undefined N/A 30.44 1031 N/A 0 0
9:54 am 09:54 undefined 37 2.8 17 -8.3 44 44 undefined N/A 30.43 1030 N/A 0 0
10:54 am 10:54 undefined 37 2.8 16 -8.9 42 42 undefined N/A 30.41 1030 N/A 0 0
11:54 am 11:54 undefined 42 5.6 18 -7.8 38 38 undefined N/A 30.38 1029 N/A 0 0
12:54 pm 12:54 undefined 43 6.1 18 -7.8 37 37 undefined N/A 30.36 1028 N/A 0 0
1:54 pm 13:54 undefined 43 6.1 17 -8.3 35 35 undefined N/A 30.33 1027 N/A 0 0
2:54 pm 14:54 undefined 43 6.1 17 -8.3 35 35 undefined N/A 30.34 1027 N/A 0 0
3:54 pm 15:54 undefined 43 6.1 17 -8.3 35 35 undefined N/A 30.34 1027 N/A 0 0
4:54 pm 16:54 undefined 41 5 18 -7.8 39 39 undefined N/A 30.33 1027 N/A 0 0
5:54 pm 17:54 undefined 40 4.4 19 -7.2 43 43 undefined N/A 30.33 1027 N/A 0 0
6:54 pm 18:54 undefined 40 4.4 20 -6.7 45 45 undefined N/A 30.33 1027 N/A 0 0
7:54 pm 19:54 undefined 38 3.3 21 -6.1 51 51 undefined N/A 30.32 1027 N/A 0 0
8:54 pm 20:54 undefined 40 4.4 20 -6.7 45 45 undefined N/A 30.33 1027 N/A 0 0
9:54 pm 21:54 undefined 40 4.4 20 -6.7 45 45 undefined N/A 30.33 1027 N/A 0 0
10:54 pm 22:54 undefined 40 4.4 20 -6.7 45 45 undefined N/A 30.32 1027 N/A 0 0
11:54 pm 23:54 undefined 39 3.9 22 -5.6 50 50 undefined N/A 30.31 1026 N/A 0 0

Powered by AerisWeather